CZ-3B DEB, 42458

Orbit data source: Space-Track

CZ-3B DEB, 42458 is space debris in HEO originally from a launch on Sat, 04 Sep 2010 UTC launched from the Xichang Space Center, China (XSC). Debris objects in space refer to the collection of defunct objects orbiting the Earth. Examples of debris include non-operational satellites, rocket bodies, and fragments generated from explosions, collisions, or faulty payload assembly.

Loading next visibility...
CZ-3B DEB details
Identifier
42458, 2010-042Z
Orbit
HEO
Last TLE update3 days ago
Origin
Flag of CNCASC (CN / PRC)
ManufacturerCALT
MissionSpacecraft
Bus & MotorUnknown
MassUnknown
Launch date (UTC)
2010-09-04 (14 years ago)
Launch vehicleUnknown
Launch site
Xichang Space Center, China (XSC)
Object type
Payload
Rocket body
Debris
Shape & HBRUnknown
Radar Cross SectionMedium (>0.1 m² and <1 m²)

Expand to show TLE details & history

TLE from 3 days ago
0 CZ-3B DEB
1 42458U 10042Z   24345.23984457 -.00000023  00000-0  12288-1 0  9998
2 42458  31.1007  26.0411 7479017  21.5362 358.0900  1.81272596 66429
Epoch: 2024-12-10T05:45Z
Definitive object data (Epoch: 2024-12-10T05:45:22.57Z)
Latitude-0.00018°
Longitude-139.73068°
Altitude983.122 km
Speed9.709 km/s
True Right ascension01h 44m 15s
True Declination0° 00' 01"
Sunlit
Object was in full shadow at TLE epoch
Visualization TLE readout
Latitude-21.40647°
Longitude79.94892°
Altitude34,420.487 km
Speed2.348 km/s
Apparent Right ascension16h 47m 09s
Apparent Declination-25° 00' 56"
Sunlit
Object is in daylight
Visualization observer readout
Local Sidereal Time08:26:07
Azimuth89.123° E
Elevation-42.265°
Doppler factor1
Orbital elements
Apogee altitude43,290.197 km
Perigee altitude785.482 km
Semi-major axis28,415.977 km
Eccentricity0.7479017
Inclination31.1007°
RAAN26.0411°
Arg. of periapsis21.5362°
True anomaly340.38378°
Mean anomaly358.09°
Eccentric anomaly352.4874°
Mean motion0.45311 °/min
BSTAR0.012288
Orbital period794.52 mins
Loading maneuver chart data...
Loading historical data...
Loading historical data...
Loading historical data...
Loading historical data...
Loading historical data...
Loading historical data...
Loading historical data...

CZ-3B DEB Visibility forecast

Observer location: undefined°, undefined

Span
Click to sort rows by Start time (UTC) header in descending order
Start Az.
Max El. time (UTC)
Max El. Az.
Max El.
End time (UTC)
End Az.
392 mins2024-12-13 13:39:16.501Z274.708° WNW2024-12-13 14:25:16.501Z216.805° SW37.998°2024-12-13 20:11:16.501Z235.946° WSW
|